TITAN 3C TRANSTAGE DEB, 21692

Orbit data source: Space-Track

TITAN 3C TRANSTAGE DEB, 21692 is space debris in HEO originally from a launch on Tue, 21 Dec 1965 UTC launched from the Air Force Eastern Test Range (AFETR). Debris objects in space refer to the collection of defunct objects orbiting the Earth. Examples of debris include non-operational satellites, rocket bodies, and fragments generated from explosions, collisions, or faulty payload assembly.

Loading next visibility...
Identifier
21692, 1965-108AF
Orbit
HEO
Country
Flag of USUS
Related business
Manufacturer
Unknown
Mission
Spacecraft
Bus & Motor
Unknown
Mass
Unknown
Launch date (UTC)
1965-12-21 (60 years ago)
Launch vehicle
Unknown
Launch site
Air Force Eastern Test Range (AFETR)
Object type
Payload
Rocket body
Debris
Shape & HBR
Unknown
Radar Cross Section
Medium (>0.1 m² and <1 m²)

Expand to show TLE details & history
Last TLE update: 1 day ago

TLE from 1 day ago
0 TITAN 3C TRANSTAGE DEB
1 21692U 65108AF  25242.01308442  .00010033  00000-0  31539-1 0  9996
2 21692  27.9341 347.7117 6192878 213.3414 351.1928  3.57510938154007
Epoch: 2025-08-30T00:18Z
TLE epoch observation values (Epoch: 2025-08-30T00:18:50.493Z)
Latitude
4.88915°
Longitude
175.32089°
Altitude
1,317.636 km
Speed
9.029 km/s
True Right ascension
10h 33m 56s
True Declination
4° 51' 44"
Sunlit
Object was in daylight at epoch
Visualization orbit readout
Latitude
Unknown
Longitude
Unknown
Altitude
Unknown
Speed
Unknown
Apparent Right ascension
Unknown
Apparent Declination
Unknown
Sunlit
N/A
Visualization observer readout
Local Sidereal Time
16:04:00
Azimuth
Unknown
Elevation
Unknown
Doppler factor
Unknown
Orbital elements
Apogee altitude
22,882.323 km
Perigee altitude
501.316 km
Semi-major axis
18,069.956 km
Eccentricity
0.61929
Inclination
27.9341°
RAAN
347.7117°
Arg. of periapsis
213.3414°
True anomaly
315.88148°
Mean anomaly
351.1928°
Eccentric anomaly
337.76727°
Mean motion
0.89353 °/min
Orbital period
402.9 mins
BSTAR
0.031539
Loading maneuver chart data...
Computing Atmospheric mass density...

Documentation

Showing up to 5 results
|